Retour au catalogue

STARLINK-11397

ActifCommunicationsVLEO
NORAD 62590·PAYLOAD·🇺🇸 United States

Lancé Jan 13, 2025 depuis Cape Canaveral Space Force Station

Loading…

Prochains Passages (prochaines 24 heures)

TLE

FraisSource: CelesTrak SupGP

Époque: Sep 15, 2026, 03:36 UTC

1 62590C 25008D   26258.15048611 -.00100480  00000+0 -78018-3 0  2585
2 62590  43.0010  63.6891 0001635 266.2807 205.0950 15.70895079    14

Suivez STARLINK-11397 en temps réel avec AllMySat

Download on the App Store